📊 Raw Sensor Data

Showing records 37901 to 37925 of 84,921 total

ID Distance (ft) Battery V Battery A Int Temp (°F) Int Humid (%) Ext Temp (°F) Solar V RSSI SNR Time Stamp
47033 15.3 3.84 0 85 41 78 5.10 -70 8 07/22/2025 01:45 PM
47032 15.3 3.94 0 82 42 77 5.10 -70 7 07/22/2025 01:30 PM
47031 15.3 3.84 0 80 42 76 5.10 -70 8 07/22/2025 01:15 PM
47030 15.3 3.84 0 79 43 75 5.10 -69 8 07/22/2025 01:00 PM
47029 15.3 3.84 0 78 43 73 5.10 -72 7 07/22/2025 12:45 PM
47028 15.3 3.84 0 78 42 73 5.10 -71 7 07/22/2025 12:30 PM
47027 15.3 3.84 0 78 42 74 5.10 -71 8 07/22/2025 12:15 PM
47026 15.3 3.84 0 76 43 73 5.10 -69 7 07/22/2025 12:00 PM
47025 15.3 3.84 0 76 42 74 5.10 -71 8 07/22/2025 11:45 AM
47024 15.3 3.98 0 74 42 74 5.10 -70 8 07/22/2025 11:30 AM
47023 15.4 3.84 0 74 42 71 5.10 -70 8 07/22/2025 11:15 AM
47022 15.3 4.09 0 72 42 71 5.10 -70 8 07/22/2025 11:00 AM
47021 15.3 4.03 0 72 42 72 5.10 -69 8 07/22/2025 10:45 AM
47020 15.3 3.84 0 71 42 70 5.10 -69 8 07/22/2025 10:30 AM
47019 15.3 3.84 0 69 42 70 5.10 -70 8 07/22/2025 10:15 AM
47018 15.3 3.96 0 68 42 68 5.10 -68 7 07/22/2025 10:00 AM
47017 15.3 3.85 0 67 42 69 5.10 -70 8 07/22/2025 09:45 AM
47016 15.2 3.85 0 65 43 65 5.10 -70 7 07/22/2025 09:30 AM
47015 15.2 4.08 0 64 43 64 5.10 -70 8 07/22/2025 09:15 AM
47014 15.2 3.85 0 64 43 63 5.10 -69 7 07/22/2025 09:00 AM
47013 15.2 3.89 0 64 43 63 5.10 -70 8 07/22/2025 08:45 AM
47012 15.2 3.85 0 63 43 63 5.10 -69 8 07/22/2025 08:30 AM
47011 15.2 3.85 0 63 43 62 5.10 -69 8 07/22/2025 08:15 AM
47010 15.2 4.01 29 62 43 61 4.50 -68 8 07/22/2025 08:00 AM
47009 15.2 3.91 5 62 43 62 4.50 -69 8 07/22/2025 07:45 AM